Wetterdaten Herbst 2015

Datum T max T min Regen
01.09.2015 24.4 °C 14.9 °C 11.6 mm
02.09.2015 19.9 °C 12.8 °C 0 mm
03.09.2015 19.8 °C 13.7 °C 3.4 mm
04.09.2015 18.8 °C 10.7 °C 0 mm
05.09.2015 16.7 °C 9.2 °C 0 mm
06.09.2015 15.2 °C 8.8 °C 2.8 mm
07.09.2015 15.2 °C 7.6 °C 0 mm
08.09.2015 18.9 °C 10.9 °C 0 mm
09.09.2015 19.7 °C 7.3 °C 0 mm
10.09.2015 18.9 °C 6.7 °C 0 mm
11.09.2015 19.4 °C 5.8 °C 0 mm
12.09.2015 26.2 °C 9.7 °C 0.2 mm
13.09.2015 20.8 °C 15.9 °C 0.2 mm
14.09.2015 21.6 °C 13.4 °C 2.4 mm
15.09.2015 18.4 °C 12.1 °C 0.2 mm
16.09.2015 19.1 °C 13.4 °C 2 mm
17.09.2015 17.2 °C 11.7 °C 5.4 mm
18.09.2015 16.3 °C 11.2 °C 1.4 mm
19.09.2015 17.4 °C 8.7 °C 0 mm
20.09.2015 15.7 °C 8.8 °C 0 mm
21.09.2015 18.4 °C 6.2 °C 0 mm
22.09.2015 17.2 °C 9.8 °C 2.4 mm
23.09.2015 13.5 °C 9.4 °C 0.8 mm
24.09.2015 16.8 °C 10.2 °C 3 mm
25.09.2015 17.3 °C 7.6 °C 0 mm
26.09.2015 16.8 °C 11.6 °C 0 mm
27.09.2015 17.7 °C 9.7 °C 0 mm
28.09.2015 16.6 °C 4.6 °C 0 mm
29.09.2015 16.6 °C 7.8 °C 0 mm
30.09.2015 10.9 °C 9.9 °C 0 mm
01.10.2015 10.6 °C 3.1 °C 0 mm
02.10.2015 19.5 °C 2.7 °C 0 mm
03.10.2015 19.6 °C 6.4 °C 0 mm
04.10.2015 14.8 °C 8.9 °C 8.8 mm
05.10.2015 13.1 °C 7.8 °C 0 mm
07.10.2015 14.2 °C 12.8 °C 0 mm
08.10.2015 15.1 °C 7.5 °C 0 mm
09.10.2015 16 °C 9.7 °C 0 mm
10.10.2015 13.7 °C 7.6 °C 0 mm
11.10.2015 14.6 °C 7.6 °C 0 mm
12.10.2015 12.4 °C 1.7 °C 0 mm
13.10.2015 10.5 °C 2.3 °C 0 mm
14.10.2015 7.8 °C 4.1 °C 4.4 mm
15.10.2015 4.8 °C 4 °C 0.2 mm
16.10.2015 6.2 °C 4.3 °C 0.6 mm
17.10.2015 8.2 °C 3.4 °C 0.6 mm
18.10.2015 8.3 °C 5.3 °C 0.4 mm
19.10.2015 9.7 °C 5.8 °C 0 mm
20.10.2015 8.5 °C 5.2 °C 0.2 mm
21.10.2015 10.4 °C 5.5 °C 0 mm
22.10.2015 12.3 °C 5.3 °C 0.2 mm
23.10.2015 12.7 °C 9.3 °C 0.8 mm
24.10.2015 16.8 °C 5.3 °C 0 mm
25.10.2015 14.2 °C 7.3 °C 0.4 mm
26.10.2015 14.6 °C 3.7 °C 0 mm
27.10.2015 10 °C 4.1 °C 0 mm
28.10.2015 10.9 °C 2.9 °C 0 mm
29.10.2015 12.7 °C 7.8 °C 0 mm
30.10.2015 11 °C 8.8 °C 0 mm
31.10.2015 11.1 °C 4.7 °C 0 mm
01.11.2015 7.8 °C 1.9 °C 0 mm
02.11.2015 5.5 °C 2.2 °C 0.2 mm
03.11.2015 4.2 °C 1.9 °C 0.2 mm
04.11.2015 17.2 °C 2.5 °C 0 mm
05.11.2015 16.7 °C 5.8 °C 0 mm
06.11.2015 17.7 °C 7.6 °C 0 mm
07.11.2015 19.4 °C 12.2 °C 0 mm
08.11.2015 20.2 °C 8.9 °C 0 mm
09.11.2015 17.7 °C 9.4 °C 0.4 mm
10.11.2015 18.1 °C 10.4 °C 0 mm
11.11.2015 13.8 °C 5.3 °C 0 mm
12.11.2015 14.6 °C 5.3 °C 0 mm
13.11.2015 13.1 °C 2.8 °C 0.6 mm
14.11.2015 11 °C 6.5 °C 0.2 mm
15.11.2015 15.2 °C 7.9 °C 0.6 mm
16.11.2015 13.3 °C 2.2 °C 0 mm
17.11.2015 14.9 °C 6.6 °C 1 mm
18.11.2015 15.4 °C 8.6 °C 0 mm
19.11.2015 15.2 °C 10.2 °C 0.4 mm
20.11.2015 15.4 °C 4.5 °C 57.4 mm
21.11.2015 5.6 °C 0.4 °C 2.6 mm
22.11.2015 2.9 °C 0.3 °C 0 mm
23.11.2015 2.2 °C -0.4 °C 0 mm
24.11.2015 3.3 °C -2.5 °C 0 mm
25.11.2015 4.7 °C 1.5 °C 0 mm
26.11.2015 4.6 °C 1.7 °C 0 mm
27.11.2015 1.9 °C -0.6 °C 0 mm
28.11.2015 4.2 °C -1.5 °C 0 mm
29.11.2015 9.6 °C 2.5 °C 0.2 mm
30.11.2015 10.6 °C 8.8 °C 0.4 mm
 Hinweis zur Datenqualität
∅ Temperatur

10.2 °C

Abweichung vom Mittel

-0.1 °C

Niederschlag

116.6 mm

Abweichung vom Mittel

76 %

26.2 °C

Lufttemperatur
12.09.2015

1034 hPa

Luftdruck
28.09.2015

35.3 km/h

Windböen
30.11.2015

116.6 mm

Niederschlag
 

-2.5 °C

Lufttemperatur
24.11.2015

-2.6 °C

Bodentemperatur 5cm
01.01.1970

995 hPa

Luftdruck
21.11.2015
 Hinweis zur Datenqualität